Regional Weather Roundup
Issued by NWS Upton, NY

Current Version | Previous Version | Graphics & Text | Print | Product List | Glossary Off
Versions: 1 2 3 4 5 6 7 8 9 10 11 12 13 14 15 16 17 18 19 20 21 22 23 24 25 26 27 28 29 30 31 32 33 34 35 36 37 38 39 40 41 42 43 44 45 46 47 48 49 50

000
ASUS41 KOKX 260107
RWROKX

REGIONAL WEATHER ROUNDUP
NATIONAL WEATHER SERVICE NEW YORK NY
900 PM EDT SAT APR 25 2015

NOTE: "FAIR" INDICATES FEW OR NO CLOUDS BELOW 12,000 FEET WITH NO
SIGNIFICANT WEATHER AND/OR OBSTRUCTIONS TO VISIBILITY.

NYZ071-072-176-178-NJZ106-104-260200-
NEW YORK CITY METRO AREA


CITY           SKY/WX    TMP DP  RH WIND       PRES   REMARKS
CENTRAL PARK   CLEAR     52  34  50 CALM      29.73R
LAGUARDIA APRT MOCLDY    52  33  48 SE6       29.70S
KENNEDY INTL   MOCLDY    49  35  58 SE5       29.72S
NEWARK/LIBERTY MOCLDY    55  23  28 N9        29.70R
BRNX BOT. GARD   N/A     48  32  53 N2        29.70F
TETERBORO      CLEAR     56  21  25 N6        29.69S
$$

NYZ177-179-078>081-260200-
LONG ISLAND NEW YORK

CITY           SKY/WX    TMP DP  RH WIND       PRES   REMARKS
FARMINGDALE    CLEAR     46  36  68 SW5       29.72F
ISLIP          MOCLDY    44  35  70 SW6       29.71S
SHIRLEY        PTCLDY    45  35  68 SW5       29.73S
WESTHAMPTON    PTCLDY    43  33  68 SW3       29.74S
MONTAUK POINT    N/A     46  36  68 SW9       29.73R
$$

NYZ052-065-067-260200-
HUDSON VALLEY

CITY           SKY/WX    TMP DP  RH WIND       PRES   REMARKS
WHITE PLAINS   PTCLDY    47  31  53 SE3       29.70R
NEWBURGH       NOT AVBL
MONTGOMERY     CLEAR     49  27  42 NE7       29.72R
POUGHKEEPSIE   CLEAR     49  27  42 NE5       29.72R
ALBANY         MOCLDY    50  26  39 CALM      29.74R
$$

NJZ001-105-106-008-010-013-015-019>022-104-260200-
NEW JERSEY

CITY           SKY/WX    TMP DP  RH WIND       PRES   REMARKS
NEWARK/LIBERTY MOCLDY    55  23  28 N9        29.70R
TETERBORO      CLEAR     56  21  25 N6        29.69S
CALDWELL       CLEAR     53  23  31 CALM      29.71R
MORRISTOWN     PTCLDY    50  28  43 CALM      29.71R
SOMERVILLE     MOCLDY    48  28  46 E3        29.68S
SUSSEX         CLEAR     43  28  55 CALM      29.72S
ANDOVER          N/A     47  27  45 CALM      29.71R
TRENTON        MOCLDY    53  23  31 SW3       29.70S
MILLVILLE      CLOUDY    48  34  58 SW5       29.74F
ATLANTIC CITY  CLOUDY    49  31  49 SW8       29.74S
WRIGHTSTOWN    CLOUDY    49  27  42 SW9       29.70S
TOMS RIVER     CLOUDY    48  28  46 CALM      29.70F
BELMAR         MOCLDY    52  25  35 SW5       29.71S
$$

PAZ047>061-062-071-260200-
EASTERN PENNSYLVANIA

CITY           SKY/WX    TMP DP  RH WIND       PRES   REMARKS
PHILADELPHIA   CLOUDY    52  27  38 SW12      29.74S
ALLENTOWN      MOCLDY    52  25  35 CALM      29.71R
SCRANTON       CLEAR     48  26  42 N8        29.72R
$$

CTZ002-004>006-009-010-012-RIZ004-006-007-MAZ004-011-015-260200-
SOUTHERN NEW ENGLAND
 IN CT

CITY           SKY/WX    TMP DP  RH WIND       PRES   REMARKS
BRADLEY INTL   PTCLDY    50  26  39 NW5       29.71R
HARTFORD       CLEAR     52  25  35 W6        29.72R
DANBURY        CLEAR     49  24  37 VRB3      29.73R
WTRBRY/OXFORD  PTCLDY    45  25  45 N8        29.73R
BRIDGEPORT     CLEAR     49  35  58 SW5       29.73R
MERIDEN        CLEAR     51  26  37 NW5       29.72R
NEW HAVEN      PTCLDY    49  26  41 NE3       29.72R
CHESTER        FAIR      52  27  37 NW5       29.72R
GROTON         CLOUDY    48  36  63 SW8       29.71R
WILLIMANTIC    CLEAR     50  26  39 CALM      29.71R

 IN RI

CITY           SKY/WX    TMP DP  RH WIND       PRES   REMARKS
PROVIDENCE     MOCLDY    52  25  35 NW5       29.71R
BLOCK ISLAND   CLOUDY    45  36  70 W15G21    29.71S
WESTERLY       CLOUDY    48  35  60 SW6       29.72R

 IN MA

CITY           SKY/WX    TMP DP  RH WIND       PRES   REMARKS
BOSTON         MOCLDY    47  31  53 N10       29.73R
WORCESTER      CLOUDY    47  25  42 N5        29.71R
WESTFIELD      CLOUDY    51  26  37 N5        29.72R
PROVINCETOWN   MOCLDY   N/A N/A N/A CALM      29.72S
NANTUCKET      CLOUDY    44  35  70 SW13      29.73R
$$

ANZ330-335-338-340-345-350-353-355-260200-
COASTAL MARINE OBSERVATIONS


STATION/POSITION TIME  SKY/WX   TEMP    WIND        PRES    VSBY  WAVE
                                AIR SEA DIR/SP/G                  HT/PER
                 (UTC)          (F)     (DEG/KT/KT) (MB)    (MI)  (FT/S)
NY HARB ENTRANCE 0050            46 46  190/ 12/ 14 1005.7          2/ 4
4S FIRE IS       0003               44                N/A           3/ 4
20S FIRE ISLAND  0050            45 43  210/ 14/ 16 1006.6          2/ 4
23SW MTP         NOT AVBL
HUDSON CANYON    NOT AVBL
EXECUTION ROCKS  NOT AVBL
WESTERN LI SOUND NOT AVBL
CENTRAL LI SOUND NOT AVBL
EASTERN LI SOUND 0000            45     240/  6/ 10   N/A
ROBBINS REEF     0000            54     150/  5/  6 1004.3
$$


>>>>>>>>>>>>>>>>>>>>>>>>>>>> KEY <<<<<<<<<<<<<<<<<<<<<<<<<<<
>                                                          <
>     SKY/WX - SKY CONDITION/PRESENT WEATHER               <
>     TMP    - TEMPERATURE IN FAHRENHEIT                   <
>     DP     - DEWPOINT IN FAHRENHEIT                      <
>     RH     - RELATIVE HUMIDITY IN PERCENT                <
>     WIND   - DIRECTION AND SPEED IN MPH                  <
>     PRES   - MEAN SEA LEVEL PRESSURE IN INCHES OF HG     <
>     WCI    - WIND CHILL INDEX                            <
>     VSB    - VISIBILITY IN MILES                         <
>     HX     - HEAT INDEX                                  <
>     TC     - TEMPERATURE IN CELSIUS                      <
>     VRB    - VARIABLE WIND DIRECTION                     <
>                                                          <
>>>>>>>>>>>>>>>>>>>>>>>>>>>> KEY <<<<<<<<<<<<<<<<<<<<<<<<<<<




USA.gov is the U.S. government's official web portal to all federal, state and local government web resources and services.